[ hide orbit diagram ]
For accurate long-term ephemerides, please instead use our Horizons system.This orbit viewer was implemented using two-body methods, and hence should not be used for determining accurate long-term trajectories (over several years or decades) or planetary encounter circumstances.
Orbital Elements at Epoch 2459000.5 (2020-May-31.0) TDB
Reference: JPL 61 (heliocentric ecliptic J2000)
Element | Value | Uncertainty (1-sigma) | Units |
e | .07586069674251947 | 4.7332e-08 | |
a | 5.19582558644001 | 9.1968e-08 | au |
q | 4.801666637300061 | 3.0965e-07 | au |
i | 11.02774573278455 | 6.167e-06 | deg |
node | 347.7612716693624 | 1.9214e-05 | deg |
peri | 73.32022970356358 | 4.6175e-05 | deg |
M | 288.0738633115412 | 4.3592e-05 | deg |
tp | 2459864.799987017522 (2022-Oct-12.29998702) | 0.00053041 | TDB |
period | 4325.937825272276 11.84 | 0.00011486 3.145e-07 | d yr |
n | .08321894917140688 | 2.2095e-09 | deg/d |
Q | 5.589984535579958 | 9.8944e-08 | au |
|
| | Orbit Determination Parameters
Additional Information
|
[ show covariance matrix ]
Physical Parameter Table
Parameter |
Symbol |
Value |
Units |
Sigma |
Reference |
Notes |
absolute magnitude |
H |
10.4 |
|
n/a |
MPO492811 |
|
diameter |
diameter |
39.843 |
km |
3.637 |
urn:nasa:pds:neowise_diameters_albedos::2.0[jupiter_trojans] (http://adsabs.harvard.edu/abs/2012ApJ...759...49G) |
|
rotation period |
rot_per |
250. |
h |
n/a |
LCDB (Rev. 2020-October); Warner et al., 2009 |
Result based on fragmentary lightcurve(s), may be completely wrong. Published Reference List: [Mottola, S.; Di Martino, M.; Erikson, A.; Gonano-Beurer, M.; et al. (2011) Astron. J. 141, A170.] |
geometric albedo |
albedo |
0.084 |
|
0.009 |
urn:nasa:pds:neowise_diameters_albedos::2.0[jupiter_trojans] (http://adsabs.harvard.edu/abs/2012ApJ...759...49G) |
|
|
5025 (1986 TS6) Discovered 1986-Oct-05 by Antal, M. at Piwnice |
Reference: DISCOVERY.DB | Last Updated: 2003-08-29 |
|
|